Regional Weather Roundup
Issued by NWS Sterling, VA

Home | Current Version | Previous Version | Text Only | Print | Product List | Glossary Off
Versions: 1 2 3 4 5 6 7 8 9 10 11 12 13 14 15 16 17 18 19 20 21 22 23 24 25 26 27

000
ASUS41 KLWX 232110
RWRLWX

REGIONAL WEATHER ROUNDUP
NATIONAL WEATHER SERVICE BALTIMORE MD/WASHINGTON DC
500 PM EDT WED MAY 23 2018

Note: "FAIR" indicates few or no clouds below 12,000 feet
with no significant weather and/or obstructions to visibility.
 TC=TEMPERATURE CELSIUS

 * =Non NWS site. Station does not report precipitation (e.g. rain,
    snow, etc.), thunder, or fog.

DCZ001-MDZ009-015-VAZ040>042-051-053>054-232200-
WASHINGTON METRO

CITY           SKY/WX    TMP DP  RH WIND       PRES   REMARKS
WASHINGTON NAT PTSUNNY   82  58  43 NW15G21   30.02F
DULLES         FAIR      78  58  49 N15G22    30.03S
ANDREWS AFB    FAIR      79  57  46 NW15G23   30.01F
FT BELVOIR     FAIR      81  59  46 NW12      30.01F
QUANTICO       FAIR      83  62  49 N14       30.01F
COLLEGE PARK*  FAIR      78  57  47 N9        30.02S
LEESBURG*      FAIR      79  61  53 N12G18    30.05F
MANASSAS*      FAIR      81  62  52 N16       30.03S
GAITHERSBURG*  FAIR      77  58  51 NW10      30.05F

$$

MDZ006>007-011-014-232200-
BALTIMORE METRO

CITY           SKY/WX    TMP DP  RH WIND       PRES   REMARKS
BWI AIRPORT    PTSUNNY   79  59  50 NW15      30.01S
MD SCIENCE CTR   N/A     81  57  43 MISG      30.01S
MARTIN STATE   PTSUNNY   79  63  57 NW9G20    30.02S
ANNAPOLIS        N/A    N/A N/A N/A MISG      30.00S
FORT MEADE*    PTSUNNY   75  59  57 NW9G16    30.04S

$$

MDZ012-015-019>023-232200-
MARYLAND EASTERN SHORE

CITY           SKY/WX    TMP DP  RH WIND       PRES   REMARKS
OCEAN CITY     PTSUNNY   79  68  69 VRB6      29.97S
SALISBURY      FAIR      80  61  52 NW12      29.97S
BAY BRIDGE AP* FAIR      77  63  61 N8        30.00F
CAMBRIDGE*     MOSUNNY   79  59  50 NW10G18   29.99S
EASTON*        MOSUNNY   81  57  44 NW14G21   30.03S

$$

MDZ017>025-232200-
SOUTHERN MARYLAND

CITY           SKY/WX    TMP DP  RH WIND       PRES   REMARKS
PATUXENT RIVER FAIR      85  60  42 NW17      29.99S
ST INIGOES     FAIR      82  61  48 NW10      29.98F
LEONARDTOWN*   FAIR      79  59  50 NW9       30.02S

$$

MDZ003>005-232200-
NORTH CENTRAL MARYLAND

CITY           SKY/WX    TMP DP  RH WIND       PRES   REMARKS
FREDERICK*     MOSUNNY   81  55  41 N12       30.07S
HAGERSTOWN APT FAIR      76  57  51 NW10      30.06F
WESTMINSTER*   FAIR      79  57  47 N7        30.05S

$$

MDZ501>502-232200-
WESTERN MARYLAND

CITY           SKY/WX    TMP DP  RH WIND       PRES   REMARKS
OAKLAND*       CLOUDY    61  54  77 NW5       30.18R
CUMBERLAND*    PTSUNNY   73  54  49 NW8       30.13F

$$

VAZ025>031-232200-
SHENANDOAH VALLEY

CITY           SKY/WX    TMP DP  RH WIND       PRES   REMARKS
WINCHESTER*    FAIR      75  57  53 N7        30.08S
FRONT ROYAL*   FAIR      79  59  50 NE8       30.05R
LURAY*         FAIR      82  55  39 N8        30.04S
NEW MARKET*    FAIR      81  58  45 N5        30.01F
STAUNTON*      FAIR      82  59  45 NE12      30.05F
WAYNESBORO*    FAIR      82  60  46 NE8       30.04F

$$

WVZ021-048>050-054>055-232200-
EASTERN WEST VIRGINIA PANHANDLE

CITY           SKY/WX    TMP DP  RH WIND       PRES   REMARKS
MARTINSBURG    PTSUNNY   76  55  48 N13       30.06F
PETERSBURG*    FAIR      79  58  48 NE8       30.06S

$$

VAZ036>039-050-232200-
CENTRAL FOOTHILLS

CITY           SKY/WX    TMP DP  RH WIND       PRES   REMARKS
CHARLOTTESVILL FAIR      87  57  35 N7        30.00F
CULPEPER*      FAIR     N/A N/A N/A N7G16     30.02F
ORANGE*        FAIR      81  63  54 N9        30.01S
GORDONSVILLE*  FAIR      83  66  56 E3        30.00F
WARRENTON*     FAIR      83  56  40 N12G18    30.02S

$$

VAZ055>057-232200-
NORTH AND CENTRAL PIEDMONT

CITY           SKY/WX    TMP DP  RH WIND       PRES   REMARKS
FREDERICKSBRG* FAIR      84  61  45 N10       29.99F
STAFFORD*      FAIR      83  60  45 NW9G17    30.04F

$$

NCZ024-NYZ072-PAZ021-071-VAZ022-071-232200-
OTHER REGIONAL OBSERVATIONS

CITY           SKY/WX    TMP DP  RH WIND       PRES   REMARKS
NEW YORK CITY  FAIR      80  52  37 MISG      29.95F
PHILADELPHIA   FAIR      79  53  40 NW15      29.97S
PITTSBURGH     FAIR      73  53  49 NW5       30.14S
ROANOKE        FAIR      84  58  40 NW16      30.06S
RICHMOND       FAIR      85  65  51 N12       29.98F
RALEIGH        PTSUNNY   84  73  69 SW9       30.00F HX  90

$$

ANZ530>537-232200-
MARINE OBSERVATIONS

STATION/POSITION TIME  TEMP    WIND        PRES
                       AIR SEA DIR/SP/G
                 (UTC) (F)     (DEG/KT/KT) (MB)
THOMAS PT LIGHT  2100   77 70  340/ 11/ 13 1016.7F
BALT KEY BRIDGE  2048   77     320/ 13/ 16 1015.9F
COVE POINT       2048   75      20/ 13/ 16 1016.3F
LEWISETTA        2048   80 75  350/  5/  8 1015.4F
SOLOMONS ISLAND  2048   80 69  330/  8/ 11 1015.4F
PINEY POINT      2036          350/ 17/ 19   N/A

$$





USA.gov is the U.S. government's official web portal to all federal, state and local government web resources and services.